Regional Weather Roundup
Issued by NWS

Home | Current Version | Previous Version | Text Only | Print | Product List | Glossary Off
Versions: 1 2 3 4 5 6 7 8 9 10 11 12 13 14 15 16 17 18 19 20 21 22 23 24 25 26 27 28 29 30 31 32 33 34 35 36 37 38 39 40 41 42 43 44

000
ASUS45 KBOU 230110
RWRCO

WEATHER ROUNDUP FOR COLORADO
NATIONAL WEATHER SERVICE DENVER/BOULDER CO
600 PM MST THU FEB 22 2018

NOTE: "FAIR" INDICATES FEW OR NO CLOUDS BELOW 12000 FEET WITH NO
SIGNIFICANT WEATHER AND/OR OBSTRUCTIONS TO VISIBILITY.

COZ001>005-013-030-031-230200-
...NORTHWEST COLORADO...

CITY           SKY/WX    TMP DP  RH WIND       PRES   REMARKS
CRAIG          LGT SNOW  22  19  89 VRB5      29.95R FOG     WCI  16
HAYDEN         LGT SNOW  19  18  93 W3        29.94S VSB 1
MEEKER         LGT SNOW  24  19  81 CALM      29.92R
RANGELY        CLOUDY    25  21  86 CALM      29.95S
RABBIT EARS PA LGT SNOW  10   7  85 W3        29.81R
STEAMBOAT SPGS MOCLDY    20  18  90 CALM      29.91S
WALDEN         FAIR      18   7  62 SW3       29.88R
$$

COZ006>008-011-230200-
...WEST CENTRAL VALLEYS...

CITY           SKY/WX    TMP DP  RH WIND       PRES   REMARKS
GRAND JUNCTION LGT SNOW  28  28 100 E10       29.96F FOG     WCI  19
MONTROSE       FAIR      33  11  39 SW6       29.97R WCI  28
EAGLE          FLURRIES  26  17  68 NW7       29.95S WCI  18
RIFLE          LGT SNOW  27  26  96 CALM      29.97R FOG
DELTA          MOCLDY    37  18  45 SW3       29.97R
NUCLA          CLOUDY    32  12  43 SW5       29.98S WCI  27
$$

COZ017>023-064>068-230200-
...SOUTHWEST COLORADO...

CITY           SKY/WX    TMP DP  RH WIND       PRES   REMARKS
DURANGO        MOCLDY    31   8  38 CALM      29.97S
CORTEZ         FAIR      36   0  21 SW10      29.96S
PAGOSA SPRINGS CLOUDY    24  16  69 E3        29.99S
TELLURIDE      MOCLDY    20   3  47 S3        29.93R
WOLF CREEK PAS CLOUDY     5   3  92 SW21G35   29.90S WCI -16
$$

COZ009-010-012-014-032>034-037-058>063-230200-
...CENTRAL COLORADO...

CITY           SKY/WX    TMP DP  RH WIND       PRES   REMARKS
ASPEN          CLOUDY    22  14  71 N5        29.88R WCI  16
BUENA VISTA    FAIR      24   6  46 W15       29.88R WCI  11
COPPER MTN     MOCLDY    12   0  57 SW12      29.80R WCI  -2
BERTHOUD PASS  SNOW       1  -8  66 W15       29.78R VSB 1/4 WCI -18
COTTONWOOD PAS CLOUDY    23  10  58 W3        29.87R
GUNNISON       CLOUDY    26   7  44 W9        29.91R WCI  17
GRANBY         MOCLDY    22   8  55 W15G21    29.88R WCI   8
KREMMLING      MOCLDY    28  12  50 W8        29.90R WCI  20
LEADVILLE      FAIR      12  -6  44 S6        29.84R WCI   3
MONARCH PASS   SNOW       7   3  85 W23G30    29.92S VSB 1/4 WCI -14
SALIDA         FAIR      29  11  48 W13       29.98R WCI  18
SUNLIGHT       LGT SNOW   9   5  85 S9G17     29.87R WCI  -5
WILKERSON PASS FAIR      10   7  85 SW9       29.85R WCI  -2
$$

COZ069>075-230200-
...SAN LUIS VALLEY/SANGRE DE CRISTO MOUNTAINS...

CITY           SKY/WX    TMP DP  RH WIND       PRES   REMARKS
ALAMOSA        FAIR      25   9  50 SW14      29.96R WCI  13
DEL NORTE      FAIR      24   6  45 SW9       29.95R WCI  14
LA VETA PASS   CLOUDY    16   9  73 S24G38    29.99R WCI  -3
SAGUACHE       NOT AVBL
$$

COZ035-036-038>040-230200-
...NORTHERN COLORADO FRONT RANGE...

CITY           SKY/WX    TMP DP  RH WIND       PRES   REMARKS
DENVER INTL AP LGT SNOW  20  17  88 W13       29.97R VSB 1   WCI   7
AURORA         MOCLDY    19  18  95 NW9       29.98R WCI   9
FRONT RANGE AP LGT SNOW  25  19  80 NW7       29.98R WCI  17
ERIE MUNI ARPT CLOUDY    24  15  71 CALM      30.05R
BOULDER MUN AP CLOUDY    25  18  74 CALM      29.99R
CENTENNIAL     LGT SNOW  21  19  92 N9        29.96R FOG     WCI  11
BROOMFIELD     LGT SNOW  23  19  86 CALM      29.98R
FORT COLLINS   MOCLDY    23  16  74 CALM      30.00R
LONGMONT       MOCLDY    26  15  64 CALM      30.02R
$$

COZ041-046-047-076>085-087-088-230200-
...PIKES PEAK/PALMER DIVIDE AND SOUTHERN FOOTHILLS...

CITY           SKY/WX    TMP DP  RH WIND       PRES   REMARKS
COLO. SPRINGS  FAIR      33  20  58 CALM      29.91R
A. F. ACADEMY  FAIR      26  19  75 N10       29.90R WCI  15
SCHRIEVER AFB  NOT AVBL
CHEYENNE MTN   MOCLDY    28  19  71 NW8       29.84R WCI  19
ELLICOTT         N/A    N/A N/A N/A E10       29.90R
FALCON         FAIR      26  20  80 N7        29.91R WCI  18
FORT CARSON    FAIR      29  19  66 NW7       29.89R WCI  22
LIMON          FAIR      23  17  78 N10       29.94R WCI  12
MONUMENT HILL  MOCLDY    19  18  93 N3        29.93R FOG
CANON CITY     CLEAR     36  21  55 W5        29.89R
WALSENBURG     NOT AVBL
TRINIDAD       FAIR      38   3  23 W18       29.95R
$$

COZ042>045-048>051-090-091-230200-
...NORTHEAST COLORADO...

CITY           SKY/WX    TMP DP  RH WIND       PRES   REMARKS
GREELEY ARPT   FAIR      21  16  81 NW6       30.02R WCI  13
AKRON          CLOUDY    24  18  77 N7        29.99R WCI  16
BURLINGTON     FAIR      24  19  81 NE9       29.98R WCI  14
WRAY           FAIR      27  21  80 E6        30.01F WCI  20
YUMA           MOCLDY    27  19  74 N5        29.99R WCI  21
STERLING       FAIR      27  19  74 CALM      30.02R
HOLYOKE        FAIR      27  19  74 SE6       30.03S WCI  20
FORT MORGAN    CLOUDY    26  16  63 NE5       30.01R WCI  21
$$

COZ086-089-092>099-230200-
...SOUTHEAST COLORADO...

CITY           SKY/WX    TMP DP  RH WIND       PRES   REMARKS
PUEBLO         FAIR      41  16  36 E3        29.90R
LA JUNTA       FAIR      33  19  56 N6        29.92R WCI  28
LAMAR          FAIR      39  18  42 E12       29.90R
SPRINGFIELD      N/A     47  10  22 SW25G32   29.90R
$$




USA.gov is the U.S. government's official web portal to all federal, state and local government web resources and services.